Flag for U.S.A. Weather past 2 weeks in Winston-Salem, North Carolina, U.S.A.

Now
61 °F

Fog.


Feels Like: 61 °F
Forecast: 60 / 79 °F
Wind: 5 mph from Northwest

Location: Smith Reynolds Airport

Current Time: Sep 30, 2014 at 8:20:42 AM

Latest Report: Sep 30, 2014 at 7:54 AM


Visibility: 0 mi

Pressure: 29.93 "Hg

Humidity: 97%

Dew point: 60 °F

Location of Winston-SalemLocation

Historic Weather in Winston-Salem — Graph

°F

Winston-Salem temperature yesterday

Maximum temperature yesterday: 67 °F (at 4:54 PM)
Minimum temperature yesterday: 61 °F (at 10:56 PM)
Average temperature yesterday: 64 °F

Past Weeks' High & Low Weather Summary

 TemperatureHumidityPressure
High85 °F (Sep 21, 3:54 PM)97% (Sep 29, 10:56 PM)30.37 "Hg (Sep 29, 10:56 PM)
Low54 °F (Sep 23, 10:54 PM)42% (Sep 20, 1:54 PM)29.80 "Hg (Sep 21, 5:54 PM)
Average66 °F77%30.12 "Hg
* Reported Sep 15 6:54 AM — Sep 30 6:54 AM, Winston-Salem, Weather by CustomWeather, © 2014

Note: Actual official high and low records may vary slightly from our data, if they occured in-between our weather recording intervals... More about our weather records

Advertising

Winston-Salem weather history for previous 24 hours

 ConditionsComfort  
Time TempWeatherWind HumidityBarometerVisibility
6:54 AM
Sep 30
61 °FFog.3 mph97%29.92 "Hg0 mi
5:54 AM61 °FFog.5 mph97%29.92 "Hg2 mi
4:54 AM63 °FFog.No wind93%29.92 "Hg3 mi
3:54 AM63 °FFog.No wind93%29.93 "Hg4 mi
2:54 AM63 °FFog.No wind93%29.94 "Hg4 mi
1:54 AM63 °FFog.No wind93%29.96 "Hg5 mi
1:00 AM62 °FFog.3 mph96%29.99 "Hg2 mi
12:01 AM61 °FFog.No wind93%30.00 "Hg2 mi
10:56 PM
Sep 29
61 °FFog.No wind97%30.00 "Hg1 mi
9:54 PM64 °FClear.No wind90%29.98 "Hg8 mi
8:54 PM65 °FPassing clouds.No wind91%29.98 "Hg10 mi
7:54 PM66 °FOvercast.No wind87%29.97 "Hg10 mi
6:54 PM67 °FOvercast.No wind81%29.98 "Hg10 mi
5:54 PM67 °FPartly sunny.No wind81%29.98 "Hg10 mi
4:54 PM67 °FLow clouds.3 mph81%29.97 "Hg10 mi
3:54 PM66 °FLow clouds.6 mph87%29.98 "Hg8 mi
3:01 PM65 °FMore clouds than sun.3 mph91%30.02 "Hg8 mi
1:54 PM65 °FLight rain. Mostly cloudy.3 mph87%30.02 "Hg10 mi
12:54 PM65 °FLight rain. Cloudy.No wind87%30.04 "Hg10 mi
11:54 AM64 °FLight rain. Overcast.5 mph84%30.05 "Hg4 mi
10:54 AM65 °FLight rain. Overcast.3 mph78%30.06 "Hg10 mi
9:54 AM65 °FLight rain. Partly sunny.No wind85%30.05 "Hg9 mi
8:54 AM64 °FMostly cloudy.No wind87%30.05 "Hg9 mi
Weather by CustomWeather, © 2014

See weather overviewHow to use our weather pages